Date String (YYYY-MM-DD hh:mm:ss) UTC,Instrument flags,Ambient pressure (hPa),Sample flow (lpm),Bypass flow (lpm),Sample temperature (°C),Ambient temperature (°C),ASC tube jacket temperature (°C),LED temperature (°C),Box temperature (°C),Sample RH (%),Span deviation,Mass concentration (μg/m³),Mass concentration (μg/m³),Mass concentration (μg/m³)
DateTimeUTC,F1_M11,P_M11,Q1_M11,Q2_M11,T1_M11,T2_M11,T3_M11,T4_M11,T5_M11,U1_M11,ZSPAN_M11,X0_M11,X2_M11,X1_M11
2022-09-26 04:00:00,,0834.0,5.00,0.00,30.7,26.8,00.0,39.4,32.4,14.1,0000.0,0011.03,0005.69,0005.09
2022-09-26 04:01:00,,0834.0,4.99,0.00,30.6,26.9,00.0,39.3,32.1,14.2,0000.0,0011.17,0005.72,0005.10
2022-09-26 04:02:00,,0834.0,4.99,0.00,30.5,27.2,00.0,39.3,32.0,14.3,0000.0,0011.28,0005.74,0005.11
2022-09-26 04:03:00,,0834.0,4.99,0.00,30.4,27.5,00.0,39.3,32.0,14.4,0000.0,0011.62,0005.74,0005.11
2022-09-26 04:04:00,,0834.0,5.01,0.00,30.4,27.8,00.0,39.2,32.0,14.4,0000.0,0011.67,0005.73,0005.11
2022-09-26 04:05:00,,0834.0,5.00,0.00,30.3,28.0,00.0,39.2,32.1,14.5,0000.0,0011.35,0005.74,0005.11
2022-09-26 04:06:00,,0834.0,5.00,0.00,30.3,28.2,00.0,39.2,32.0,14.5,0000.0,0011.01,0005.77,0005.11
2022-09-26 04:07:00,,0834.0,4.99,0.00,30.3,28.3,00.0,39.2,32.1,14.5,0000.0,0010.99,0005.77,0005.10
2022-09-26 04:08:00,,0834.0,5.01,0.00,30.3,28.4,00.0,39.1,32.1,14.5,0000.0,0010.88,0005.74,0005.10
2022-09-26 04:09:00,,0834.0,4.99,0.00,30.3,28.5,00.0,39.1,32.1,14.5,0000.0,0010.53,0005.70,0005.10
2022-09-26 04:10:00,,0834.0,5.00,0.00,30.3,28.6,00.0,39.1,32.1,14.5,0000.0,0009.96,0005.68,0005.10
2022-09-26 04:11:00,,0834.0,5.00,0.00,30.3,28.6,00.0,39.1,32.1,14.5,0000.0,0009.59,0005.65,0005.07
2022-09-26 04:12:00,,0834.0,5.00,0.00,30.3,28.7,00.0,39.1,32.1,14.6,0000.0,0009.63,0005.65,0005.06
2022-09-26 04:13:00,,0834.0,4.99,0.00,30.3,28.7,00.0,39.1,32.1,14.6,0000.0,0009.59,0005.65,0005.07
2022-09-26 04:14:00,,0834.0,5.01,0.00,30.3,28.7,00.0,39.1,32.1,14.6,0000.0,0009.41,0005.68,0005.08
2022-09-26 04:15:00,,0834.0,4.99,0.00,30.3,28.8,00.0,39.1,32.1,14.7,0000.0,0009.37,0005.67,0005.08
2022-09-26 04:16:00,,0834.1,5.01,0.00,30.3,28.8,00.0,39.1,32.2,14.7,0000.0,0009.37,0005.70,0005.09
2022-09-26 04:17:00,,0834.0,5.00,0.00,30.3,28.8,00.0,39.1,32.2,14.7,0000.0,0009.27,0005.69,0005.11
2022-09-26 04:18:00,,0834.1,4.99,0.00,30.3,28.8,00.0,39.1,32.2,14.7,0000.0,0009.27,0005.73,0005.15
2022-09-26 04:19:00,,0834.1,5.01,0.00,30.4,28.9,00.0,39.1,32.2,14.6,0000.0,0009.37,0005.79,0005.16
2022-09-26 04:20:00,,0834.1,5.00,0.00,30.4,28.9,00.0,39.1,32.2,14.6,0000.0,0009.37,0005.83,0005.19
2022-09-26 04:21:00,,0834.0,4.99,0.00,30.4,28.9,00.0,39.1,32.2,14.5,0000.0,0009.36,0005.84,0005.19
2022-09-26 04:22:00,,0834.0,5.01,0.00,30.4,28.9,00.0,39.1,32.2,14.5,0000.0,0009.50,0005.86,0005.21
2022-09-26 04:23:00,,0834.1,4.99,0.00,30.4,28.9,00.0,39.1,32.2,14.6,0000.0,0009.66,0005.85,0005.23
2022-09-26 04:24:00,,0834.1,5.00,0.00,30.4,28.9,00.0,39.1,32.2,14.5,0000.0,0009.66,0005.86,0005.23
2022-09-26 04:25:00,,0834.1,5.01,0.00,30.4,29.0,00.0,39.1,32.3,14.6,0000.0,0010.06,0005.88,0005.22
2022-09-26 04:26:00,,0834.1,4.99,0.00,30.4,29.0,00.0,39.1,32.3,14.5,0000.0,0010.48,0005.91,0005.24
2022-09-26 04:27:00,,0834.0,5.01,0.00,30.4,29.0,00.0,39.1,32.3,14.5,0000.0,0010.82,0005.95,0005.24
2022-09-26 04:28:00,,0834.1,5.00,0.00,30.4,29.0,00.0,39.2,32.3,14.5,0000.0,0011.22,0005.95,0005.23
2022-09-26 04:29:00,,0834.1,5.00,0.00,30.4,29.0,00.0,39.2,32.3,14.5,0000.0,0011.51,0005.94,0005.22
2022-09-26 04:30:00,,0834.0,5.00,0.00,30.4,29.0,00.0,39.2,32.3,14.6,0000.0,0011.46,0005.92,0005.24
2022-09-26 04:31:00,,0834.0,4.99,0.00,30.5,29.0,00.0,39.2,32.3,14.7,0000.0,0011.50,0005.92,0005.24
2022-09-26 04:32:00,,0834.0,5.01,0.00,30.5,29.0,00.0,39.2,32.3,14.7,0000.0,0011.80,0005.96,0005.25
2022-09-26 04:33:00,,0834.1,5.00,0.00,30.5,29.0,00.0,39.2,32.3,14.7,0000.0,0012.08,0005.99,0005.26
2022-09-26 04:34:00,,0834.0,4.99,0.00,30.5,29.0,00.0,39.2,32.3,14.6,0000.0,0011.75,0005.98,0005.26
2022-09-26 04:35:00,,0834.0,5.01,0.00,30.5,29.0,00.0,39.2,32.3,14.5,0000.0,0011.81,0005.96,0005.26
2022-09-26 04:36:00,,0834.0,4.98,0.00,30.5,29.0,00.0,39.2,32.3,14.5,0000.0,0011.81,0005.96,0005.26
2022-09-26 04:37:00,,0834.0,5.01,0.00,30.5,29.0,00.0,39.2,32.3,14.6,0000.0,0011.19,0005.94,0005.25
2022-09-26 04:38:00,,0834.0,5.01,0.00,30.5,29.0,00.0,39.2,32.3,14.8,0000.0,0011.29,0005.94,0005.25
2022-09-26 04:39:00,,0834.0,4.99,0.00,30.5,29.0,00.0,39.2,32.3,14.7,0000.0,0011.42,0006.00,0005.28
2022-09-26 04:40:00,,0834.0,5.00,0.00,30.5,29.0,00.0,39.2,32.3,14.6,0000.0,0011.35,0006.02,0005.30
2022-09-26 04:41:00,,0834.0,5.00,0.00,30.5,29.0,00.0,39.2,32.3,14.6,0000.0,0011.88,0006.00,0005.28
2022-09-26 04:42:00,,0834.0,4.99,0.00,30.5,29.0,00.0,39.2,32.3,14.6,0000.0,0011.80,0005.99,0005.29
2022-09-26 04:43:00,,0834.0,5.00,0.00,30.5,29.0,00.0,39.2,32.3,14.6,0000.0,0011.72,0005.98,0005.31
2022-09-26 04:44:00,,0834.0,4.99,0.00,30.5,29.0,00.0,39.2,32.3,14.6,0000.0,0012.08,0005.99,0005.32
2022-09-26 04:45:00,,0834.0,5.00,0.00,30.5,29.0,00.0,39.3,32.3,14.7,0000.0,0012.67,0006.03,0005.35
2022-09-26 04:46:00,,0834.0,4.99,0.00,30.5,29.0,00.0,39.3,32.3,14.7,0000.0,0012.80,0006.08,0005.38
2022-09-26 04:47:00,,0834.0,5.01,0.00,30.5,29.0,00.0,39.3,32.3,14.8,0000.4,0012.51,0006.12,0005.42
2022-09-26 04:48:00,,0834.0,4.99,0.00,30.5,29.0,00.0,39.3,32.3,14.8,0000.0,0012.64,0006.19,0005.47
2022-09-26 04:49:00,,0834.0,5.01,0.00,30.5,29.0,00.0,39.3,32.4,14.7,0000.0,0012.77,0006.20,0005.50
2022-09-26 04:50:00,,0834.0,4.99,0.00,30.5,29.0,00.0,39.3,32.3,14.8,0000.0,0013.50,0006.21,0005.50
2022-09-26 04:51:00,,0834.0,5.00,0.00,30.5,29.0,00.0,39.3,32.3,14.8,0000.6,0013.45,0006.19,0005.52
2022-09-26 04:52:00,,0834.0,5.00,0.00,30.5,29.0,00.0,39.3,32.4,14.7,0000.0,0013.11,0006.22,0005.53
2022-09-26 04:53:00,,0834.1,4.99,0.00,30.5,29.0,00.0,39.3,32.4,14.8,0000.1,0013.83,0006.23,0005.55
2022-09-26 04:54:00,,0834.0,5.01,0.00,30.5,29.0,00.0,39.3,32.4,14.8,0002.8,0014.02,0006.26,0005.57
2022-09-26 04:55:00,,0834.1,4.99,0.00,30.5,29.0,00.0,39.3,32.4,14.7,0002.7,0013.19,0006.26,0005.59
2022-09-26 04:56:00,,0834.1,5.01,0.00,30.5,29.0,00.0,39.3,32.4,14.7,0003.1,0013.31,0006.28,0005.62
2022-09-26 04:57:00,,0834.0,4.99,0.00,30.5,29.0,00.0,39.3,32.4,14.7,0003.1,0013.33,0006.28,0005.63
2022-09-26 04:58:00,,0834.1,5.01,0.00,30.6,29.0,00.0,39.3,32.4,14.7,0003.2,0013.20,0006.24,0005.62
2022-09-26 04:59:00,,0834.1,4.98,0.00,30.5,29.0,00.0,39.3,32.4,14.8,0003.1,0013.16,0006.25,0005.63
